CAPE
712 695 512 373 377 537 702 727 937 1069 1305 1417 1242 1118 1252 1268 1303 1482 1579 1445 1396 1189 1139 1250 1217 1367 1113 580 684 580 452 358 472 506 392 261 749 1368 1351 1706 1105 1520 539
969 959 836 780 446 294 417 604 749 1034 1088 1147 1298 1366 1128 1252 1296 1440 1256 1057 1159 1234 1126 976 928 669 1288 1445 655 625 507 584 417 546 461 804 712 1046 1213 1770 1066 829 642
1058 1007 842 1044 682 439 303 333 618 1081 1173 1040 1135 1259 1430 1424 1582 1658 1460 1410 1402 1171 1085 1058 988 973 1458 1414 1632 1115 771 1045 1185 958 734 411 618 728 901 1147 1367 775 373
732 730 853 912 964 617 453 333 426 677 978 1011 1130 1050 1070 1165 1386 1290 1206 1296 1215 979 921 929 1036 1047 1139 1402 1377 1378 1318 1134 964 844 758 506 462 1125 1441 474 449 284 314
62 173 616 917 1057 778 901 720 499 461 739 765 881 855 1003 951 816 924 1276 1329 1305 1101 1027 1174 1117 1085 841 726 703 867 1439 962 1130 870 647 483 378 1078 409 593 589 598 910
105 111 248 574 612 879 825 814 677 707 895 805 758 830 971 91 7 47 233 1075 1273 1259 1146 1230 865 1139 1489 772 889 699 717 1046 1366 1205 1081 742 1017 1139 1073 1238 1418 1337 1201
159 119 98 150 98 116 152 456 562 557 681 766 977 634 194 0 0 0 69 530 989 1235 1310 1800 1631 558 273 581 929 669 867 833 691 999 1156 1479 1317 1490 1550 1748 1584 1624 1409
161 96 21 2 0 0 0 0 52 216 337 564 197 14 0 0 0 0 64 1212 745 656 531 435 316 10 0 0 0 695 1038 1056 1245 1240 1559 1430 1351 970 677 1019 1246 1081 1422
1 4 6 36 39 21 3 0 1 60 84 50 12 0 0 0 0 0 113 495 442 163 0 0 0 0 0 0 0 0 17 206 179 0 0 0 0 0 148 523 844 823 783
4 1 0 1 1 29 63 60 62 37 8 0 0 0 0 0 0 0 0 72 129 57 11 0 0 0 0 0 0 0 0 0 0 0 0 60 119 389 182 322 529 611 408
0 0 0 1 1 2 4 22 3 0 0 0 0 0 0 0 0 0 0 0 0 0 0 0 0 0 0 0 0 0 0 0 0 0 0 9 0 4 4 0 0 0 0
0 0 0 0 1 6 2 3 2 0 0 0 0 0 0 0 0 0 0 0 0 0 0 0 0 0 0 0 0 0 0 0 0 0 0 0 0 0 0 0 0 0 0
0 0 0 0 0 5 6 0 0 0 1 3 0 0 0 0 0 0 0 0 0 0 0 0 0 0 0 0 0 0 0 0 0 0 0 0 0 0 0 0 0 0 0
0 0 0 0 0 0 1 1 1 3 1 0 0 0 0 0 0 0 0 0 0 0 0 0 0 0 0 0 0 0 0 0 0 0 0 0 0 0 0 0 0 0 0
0 0 0 0 0 0 0 0 0 0 0 0 0 0 0 0 0 0 0 0 0 0 0 0 0 0 0 0 0 0 0 0 0 0 0 0 0 0 0 0 0 0 0
0 0 0 0 0 0 0 0 0 0 0 0 0 0 0 0 0 0 0 0 0 0 0 0 0 0 0 0 0 0 0 0 0 0 0 0 0 0 0 0 0 0 0
0 0 0 0 0 0 0 0 0 0 0 0 0 0 0 0 0 0 0 0 0 0 0 0 0 0 0 0 0 0 0 0 0 0 0 0 0 0 0 0 0 0 0
0 0 0 0 0 0 0 0 0 0 0 0 0 0 0 0 0 0 0 0 0 0 0 0 0 0 0 0 0 0 0 0 0 0 0 0 0 0 0 0 0 0 0
0 0 0 0 0 0 0 0 0 0 0 0 0 0 0 0 0 0 0 0 0 0 0 0 0 0 0 0 0 0 0 0 0 0 0 0 0 0 0 0 0 0 0
0 0 0 0 0 0 0 0 0 0 0 0 0 0 0 0 0 0 0 0 0 0 0 0 0 0 0 0 0 0 0 0 0 0 0 0 0 0 0 0 0 0 0
0 0 0 0 0 0 0 0 0 0 0 0 0 0 0 0 0 0 0 0 0 0 0 0 0 0 0 0 0 0 0 0 0 0 0 0 0 0 0 0 0 0 0
0 0 0 0 0 0 0 0 0 0 0 0 0 0 0 0 0 0 0 0 0 0 0 0 0 0 0 0 0 0 0 0 0 0 0 0 0 0 0 0 0 0 0
0 0 0 0 0 0 0 0 0 0 0 0 0 0 0 0 0 0 0 0 0 0 0 0 0 0 0 0 0 0 0 0 0 1 1 3 3 3 1 1 1 1 2
0 0 0 0 0 0 0 0 0 0 0 0 0 0 0 0 0 0 0 0 0 0 0 0 0 0 0 0 0 0 0 0 0 1 2 4 4 5 5 1 0 2 3
0 0 0 0 0 0 0 0 0 0 0 0 0 0 0 0 0 0 0 0 0 0 0 0 0 0 0 0 0 1 0 0 0 0 0 5 4 2 1 1 1 2 2
0 0 0 1 1 0 0 0 0 0 0 0 0 2 2 1 2 1 1 0 0 1 3 3 3 1 0 0 0 0 0 0 0 0 0 0 2 1 1 3 2 2 2
CIN
-2 -2 -3 -1 -1 -1 -1 -2 -3 -5 -11 -2 0 -1 -1 -1 -1 -3 -6 -2 -1 -1 -5 -4 -1 -3 -8 -1 -4 -4 -4 -4 -6 -9 -32 -47 -13 -3 -8 -2 -14 -4 -36
-2 -2 -1 -1 -3 -1 0 0 -1 -1 -1 -1 -1 -1 -1 -1 -2 -1 -1 -3 -1 -2 -1 -1 -2 -2 -3 -3 -6 -6 -4 -9 -20 -13 -25 -4 -4 -2 -4 -9 -11 -4 -4
-2 -3 -2 -2 -1 -2 -1 -2 -1 -1 -1 -1 0 -1 -1 -1 -1 -1 -1 0 -1 -2 -1 -1 -2 -1 -2 -3 -14 -9 -2 -3 -5 -2 -10 -6 -5 -7 -3 -3 -3 -2 -4
-32 -17 -4 -2 -1 -2 -1 -1 -1 -1 -1 0 -1 -1 -1 -2 -1 -1 -1 -1 -1 -1 -1 -2 -1 0 -1 -1 -1 -2 -2 -8 -2 -2 -2 -2 -2 -4 -9 -12 -5 -10 -15
-145 -58 -9 -2 -6 -2 -1 -1 -1 -1 -1 -1 -1 -1 -1 -1 -19 -33 -3 -1 -1 -2 -1 -1 -1 -3 -15 -20 -17 -6 -9 -5 -2 -2 -2 -2 -3 -12 -15 -3 -3 -4 -3
-55 -9 -6 -5 -9 0 -3 -2 -2 -1 -1 -1 -1 0 -1 -106 -328 -193 -88 -2 -2 -1 -1 -2 -1 -25 -8 -37 -44 -60 -50 -17 -2 -4 -1 -1 -9 -2 -2 -2 -5 -1 -11
-55 -29 -25 -6 -27 -35 -37 -1 -1 -2 -1 -1 -1 -26 -92 0 0 0 -177 -42 -1 -1 -1 0 -1 -58 -63 -59 -34 -55 -33 -33 -38 -16 -2 -1 -4 -5 -9 -2 -1 -1 -2
-12 -1 -29 -8 0 0 0 -20 -29 -6 -3 0 -33 -59 0 0 0 0 -145 -2 -29 -29 -42 -51 -59 -16 0 0 0 -14 -1 -2 -1 -7 -3 -1 -1 -13 -44 -11 -3 -5 -2
-20 -8 -27 -24 -16 -34 -58 0 -3 -13 -23 -71 -89 0 0 0 0 0 -61 -2 -8 -79 0 0 0 0 0 0 0 0 -24 -41 -40 -4 0 0 0 0 -90 -50 -2 -6 -9
0 0 0 0 0 -37 -8 -9 -5 -28 -132 0 0 0 0 0 0 0 0 -18 -20 -32 -104 0 0 0 0 0 0 0 0 0 0 0 0 -61 -18 -21 -55 -40 -3 -2 -4
0 0 0 0 -1 -1 -29 -61 0 0 0 0 0 0 0 0 0 0 0 0 0 0 -2 0 0 0 0 0 0 0 0 0 0 0 -1 -8 0 -10 -9 0 0 0 0
0 0 0 0 -1 0 0 0 0 0 0 0 0 0 0 0 0 0 0 0 0 0 0 0 0 0 0 0 0 0 0 0 0 0 0 0 0 0 0 0 0 0 0
0 0 0 0 0 -1 -1 -1 0 0 -1 -1 0 0 0 0 0 0 0 0 0 0 0 0 0 0 0 0 0 0 0 0 0 0 0 0 0 0 0 0 0 0 0
0 0 0 0 0 0 -2 -1 -1 -2 -1 0 0 0 0 0 0 0 0 0 0 0 0 0 0 0 0 0 0 0 0 0 0 0 0 0 0 0 0 0 0 0 0
0 0 0 0 0 0 0 0 0 0 0 0 0 0 0 0 0 0 0 0 0 0 0 0 0 0 0 0 0 0 0 0 0 0 0 0 0 0 0 0 0 0 0
0 0 0 0 0 0 0 0 0 0 0 0 0 0 0 0 0 0 0 0 0 0 0 0 0 0 0 0 0 0 0 0 0 0 0 0 0 0 0 0 0 0 0
0 0 0 0 0 0 0 0 0 0 0 0 0 0 0 0 0 0 0 0 0 0 0 0 0 0 0 0 0 0 0 0 0 0 0 0 0 0 0 0 0 0 0
0 0 0 0 0 0 0 0 0 0 0 0 0 0 0 0 0 0 0 0 0 0 0 0 0 0 0 0 0 0 0 0 0 0 0 0 0 0 0 0 0 0 0
0 0 0 0 0 0 0 0 0 0 0 0 0 0 0 0 0 0 0 0 0 0 0 0 0 0 0 0 0 0 0 0 0 0 0 0 0 0 0 0 0 0 0
0 0 0 0 0 0 0 0 0 0 0 0 0 0 0 0 0 0 0 0 0 0 0 0 0 0 0 0 0 0 0 0 0 0 0 0 0 0 0 0 0 0 0
0 0 0 0 0 0 0 0 0 0 0 0 0 0 0 0 0 0 0 0 0 0 0 0 0 0 0 0 0 0 0 0 0 0 0 0 0 0 0 0 0 0 0
0 0 0 0 0 0 0 0 0 0 0 0 0 0 0 0 0 0 0 0 0 0 0 0 0 0 0 0 0 0 0 0 0 0 0 0 0 0 0 0 0 0 0
0 0 0 0 0 0 0 0 0 0 0 0 0 0 0 0 0 0 0 0 0 0 0 0 0 0 0 0 0 0 0 0 0 -1 -1 -1 0 0 -1 -1 -1 -1 -2
0 0 0 0 0 0 0 0 0 0 0 0 0 0 0 0 0 0 0 0 0 0 0 0 0 0 0 0 0 -1 -1 0 0 -1 0 0 0 0 0 0 -1 0 -1
0 0 0 0 0 0 0 0 0 0 0 0 0 0 0 0 0 0 0 0 0 0 0 0 0 0 0 0 0 -1 0 0 0 0 -1 0 0 0 0 0 0 0 0
0 0 0 -1 -1 -1 -1 0 0 0 0 -1 -3 -4 -2 -2 -2 -2 -2 -1 -1 -1 -1 -1 -2 -1 0 0 0 0 0 0 0 0 0 0 0 0 0 0 0 0 0
Wind_Speed
3 4 6 8 7 7 11 15 17 19 15 15 13 12 12 7 9 16 23 15 9 23 24 24 24 24 24 25 25 25 26 27 29 29 30 31 32 18 28 22 4 5 10
11 6 6 9 10 9 10 12 12 14 11 11 13 17 16 21 8 8 11 21 16 19 23 21 23 22 8 4 25 25 26 27 28 29 5 29 28 21 19 17 12 20 16
10 12 12 8 8 13 10 12 12 12 11 13 14 12 10 13 13 7 11 14 16 12 19 19 18 21 20 25 24 25 26 25 25 28 29 27 25 21 21 16 19 27 4
21 22 16 12 13 14 13 14 13 14 15 15 12 14 16 15 10 6 5 10 12 17 16 15 19 20 23 21 24 24 25 27 26 26 25 30 29 28 27 31 32 31 30
24 29 27 22 18 21 14 15 15 14 15 17 14 14 12 16 15 19 13 10 12 16 17 19 15 18 20 22 25 26 27 27 29 29 30 30 30 31 32 31 32 33 32
21 17 21 26 21 17 16 13 15 14 16 17 17 17 15 16 21 21 20 22 19 17 20 21 19 20 22 19 21 23 25 27 29 30 31 32 33 33 33 33 34 35 35
12 14 12 14 16 17 16 16 13 12 13 15 16 14 16 20 22 21 21 22 22 20 21 20 19 21 23 24 24 26 23 23 22 30 32 32 34 33 34 35 35 36 37
7 6 8 8 11 13 17 16 14 15 13 13 13 15 17 19 21 20 20 15 16 17 18 18 19 21 23 26 28 27 27 28 28 25 28 33 33 35 36 37 37 36 32
5 7 7 6 6 8 10 16 15 17 12 14 15 15 16 17 19 19 18 14 16 16 17 19 19 21 25 27 26 27 28 28 25 29 32 33 33 32 29 30 32 34 35
8 8 8 9 9 10 10 8 7 8 10 12 13 13 13 16 18 17 18 18 17 16 15 17 20 22 24 25 26 27 29 30 31 32 31 29 27 28 29 26 31 32 34
11 11 10 9 9 8 8 7 8 8 7 8 9 11 13 16 18 19 19 19 22 23 19 17 21 25 26 27 27 28 30 32 33 32 30 28 30 29 28 30 33 34 35
8 9 10 9 8 7 8 8 7 6 7 8 8 9 11 13 16 18 20 20 22 22 21 21 25 28 29 29 29 32 33 32 31 31 31 31 31 32 33 34 33 32 33
9 8 9 9 8 8 7 7 7 7 8 9 10 11 12 15 17 19 20 21 22 20 22 22 24 27 30 27 29 29 29 28 28 30 32 32 34 34 34 33 34 34 35
8 8 8 8 8 9 9 9 9 12 12 13 14 15 15 17 20 22 23 23 23 21 23 22 23 25 23 26 26 27 28 28 29 29 30 30 31 33 35 35 36 37 37
11 11 10 9 11 12 12 15 15 16 18 17 18 19 21 19 21 22 22 21 22 22 24 20 22 23 24 25 27 28 28 29 30 31 32 33 33 34 35 36 37 38 38
12 13 12 12 11 11 12 14 15 15 16 16 17 17 18 18 19 20 20 21 21 22 20 22 23 24 25 26 27 28 29 31 32 33 34 35 36 36 37 38 38 39 40
15 15 14 15 14 14 14 15 15 16 15 16 16 16 17 18 19 19 19 22 22 22 21 22 23 24 25 27 28 29 31 32 33 34 35 37 38 39 40 41 41 42 42
15 17 16 16 16 16 16 15 15 16 17 17 16 16 16 18 19 19 21 22 20 21 22 23 25 26 27 28 29 30 31 32 33 35 36 37 38 40 42 43 44 45 47
14 15 18 17 18 17 16 17 17 17 17 16 16 18 17 17 18 20 23 21 22 22 23 24 25 26 27 28 29 31 32 34 35 36 37 39 40 41 42 43 45 46 49
18 18 16 19 19 17 17 18 18 18 18 18 18 19 17 18 20 19 20 21 22 22 23 24 25 26 27 28 30 32 33 35 36 37 38 40 41 42 44 46 47 49 50
15 14 15 20 20 20 19 17 18 18 18 19 18 20 21 21 20 20 21 21 22 23 24 25 26 27 28 29 31 33 34 36 37 38 40 41 43 45 46 47 48 49 50
16 16 16 18 17 18 18 17 18 19 18 18 17 17 18 21 20 20 21 22 22 23 23 25 26 28 29 30 32 34 35 36 38 39 41 43 44 45 47 48 49 51 52
9 9 9 10 11 11 12 13 14 14 16 17 18 15 16 18 19 20 22 22 22 23 24 25 26 28 28 30 31 33 35 36 38 39 42 43 44 46 47 50 50 52 52
13 14 15 15 16 16 15 15 16 17 19 18 19 20 21 21 21 21 22 22 23 23 24 25 27 28 29 31 31 32 32 33 35 38 40 42 45 45 47 48 49 50 50
20 19 18 17 17 16 18 18 19 20 19 21 22 21 20 20 20 21 22 22 23 23 24 25 26 28 29 31 32 31 29 32 37 38 39 42 45 47 47 47 47 47 47
19 22 25 23 21 21 21 21 21 21 20 19 18 19 20 21 22 22 22 23 23 23 24 26 26 29 30 31 30 28 32 35 35 38 41 43 44 44 44 44 45 44 45
Wind_Direction
276 292 297 300 310 319 307 293 285 279 294 291 294 305 303 2 343 291 241 302 359 237 241 265 265 242 239 250 270 267 269 266 268 281 290 288 306 1 345 5 282 274 315
278 281 289 292 296 301 302 304 309 304 308 302 301 285 294 274 343 343 334 279 306 297 277 286 278 275 13 94 265 253 280 287 293 302 1 295 322 353 2 14 29 19 20
281 281 282 282 287 290 297 296 301 299 308 297 297 309 318 308 311 338 329 314 310 330 302 303 309 293 309 282 293 298 291 309 313 301 307 322 333 337 355 7 5 353 266
278 278 281 280 279 284 285 287 288 288 291 295 304 302 299 303 319 344 356 334 327 312 318 326 310 308 300 307 298 303 306 302 312 317 322 307 310 328 330 324 322 336 313
281 276 275 280 276 277 278 284 285 282 284 287 294 299 307 297 302 292 311 329 326 317 315 309 323 318 315 313 302 298 300 303 297 302 304 306 308 313 311 310 305 323 306
295 293 279 270 275 272 273 277 277 284 283 284 286 289 295 305 298 293 297 295 306 313 309 310 314 316 315 322 319 316 313 305 302 306 303 302 302 305 299 301 297 305 302
313 305 308 291 276 270 279 277 280 289 292 290 291 296 296 296 299 297 297 296 301 306 307 307 312 319 315 312 315 314 321 321 323 306 303 307 305 311 311 308 307 302 297
339 342 340 313 295 286 273 282 281 286 299 292 299 302 300 301 303 303 302 314 315 315 316 316 314 317 319 316 312 316 314 314 316 321 315 308 308 307 308 306 309 317 325
347 350 354 351 352 326 301 276 287 285 299 296 297 304 305 311 308 310 307 318 316 315 318 318 319 318 315 317 317 316 317 318 323 319 316 312 313 315 322 323 322 321 320
316 316 316 319 322 323 311 310 303 314 293 295 304 310 313 311 315 317 315 316 318 322 320 322 326 320 319 321 318 317 317 318 317 318 319 321 323 326 323 325 324 325 325
307 302 301 314 323 339 333 341 316 316 323 329 328 320 314 313 312 316 315 316 313 315 317 318 317 315 315 316 317 318 316 315 313 314 320 324 325 325 328 327 324 324 321
309 314 317 321 322 337 341 345 348 346 343 339 343 339 338 341 327 319 319 321 317 315 317 322 311 309 309 312 315 316 314 314 315 317 315 318 320 322 323 324 323 325 326
303 304 305 313 319 320 337 346 345 331 329 321 318 323 325 321 321 320 328 329 329 324 323 326 320 316 302 319 320 317 321 324 323 319 320 315 314 317 320 322 322 322 321
298 298 302 309 309 309 314 317 315 304 303 304 306 308 314 316 314 315 317 319 320 325 322 327 325 322 324 321 324 327 327 327 323 324 324 327 325 321 319 320 319 320 319
287 289 291 297 298 298 306 303 298 299 298 293 295 303 300 309 317 320 323 324 326 328 323 332 331 329 326 325 325 324 326 327 327 325 325 325 324 322 321 322 320 318 317
288 287 288 292 292 296 297 298 310 305 306 309 312 313 315 321 324 327 330 328 329 328 334 327 327 327 326 327 327 325 325 325 322 321 320 318 318 319 320 320 320 317 316
292 292 291 290 289 290 292 293 295 301 312 316 318 320 324 324 325 328 326 325 327 327 327 329 328 328 328 327 326 325 323 324 324 324 322 320 319 317 317 314 315 314 314
298 292 289 290 291 289 289 291 294 297 298 303 312 319 326 330 328 328 324 323 327 332 328 326 325 325 326 326 326 326 327 326 326 324 322 321 320 318 316 315 314 312 310
307 303 297 291 288 290 291 293 294 295 297 299 306 312 321 323 328 327 323 324 324 326 326 326 327 327 328 327 326 326 326 324 324 323 322 321 321 320 317 316 314 312 310
295 297 302 292 288 289 291 291 293 294 296 299 302 306 311 317 316 322 325 325 325 324 327 327 327 328 328 327 326 325 324 324 324 323 323 322 322 320 317 315 314 312 311
297 298 292 289 288 288 292 294 293 294 295 297 303 308 307 310 314 319 321 324 325 325 326 326 326 327 327 327 326 324 324 323 323 323 322 321 320 318 317 316 314 313 311
293 293 287 289 292 292 294 295 295 294 298 301 304 312 313 310 314 318 320 321 322 324 325 325 325 325 326 326 325 325 324 323 323 322 321 321 320 319 317 316 315 313 312
305 302 301 300 303 305 306 305 303 304 303 304 306 312 317 316 317 317 318 319 320 321 322 323 323 324 325 325 325 325 324 323 323 323 321 320 320 319 318 316 314 313 312
294 294 293 293 294 295 295 293 294 295 298 299 301 303 305 308 311 313 316 317 319 320 322 322 323 323 324 325 325 325 325 325 326 324 323 321 320 319 318 316 315 314 313
288 287 285 286 286 286 289 290 291 291 294 294 298 300 304 306 309 312 314 317 318 319 321 324 325 326 326 327 326 326 330 329 327 326 325 323 321 319 318 318 316 314 313
284 284 286 287 285 286 287 287 287 288 291 293 294 298 302 305 307 310 313 316 318 320 322 324 326 327 328 328 328 330 329 329 330 328 327 325 323 323 322 320 319 317 316